Kleine Brogel, Belgium

9:57 AM CEST on April 22, 2018 (GMT +0200)
Kleine-Brogel Air Base

Weather History for EBBL - September, 2013

Change the Weather History Date:

Monday, September 16, 2013

  Actual Average Record
Temperature  
Mean Temperature 54 °F -  
Max Temperature 61 °F 58 °F 76 °F (2014)
Min Temperature 46 °F 47 °F 39 °F (2008)
Degree Days  
Heating Degree Days 12    
Growing Degree Days 4 (Base 50)    
Moisture  
Dew Point 47 °F    
Average Humidity 79    
Maximum Humidity 100    
Minimum Humidity 33    
Precipitation  
Precipitation 0.00 in - - ()
Sea Level Pressure  
Sea Level Pressure 29.58 in    
Wind  
Wind Speed 11 mph ()    
Max Wind Speed 22 mph    
Max Gust Speed 34 mph    
Visibility 6.3 miles    
Events Rain    
Averages and records for this station are not official NWS values.
T = Trace of Precipitation, MM = Missing Value Source: Averaged Metar Reports

Daily Weather History Graph

Daily Weather History Graph

Search for Another Location

Airport or City:

Astronomy

Sep. 16, 2013 Rise Set
Actual Time 7:14 AM CEST 7:49 PM CEST
Civil Twilight 6:41 AM CEST 8:23 PM CEST
Nautical Twilight 6:01 AM CEST 9:02 PM CEST
Astronomical Twilight 5:19 AM CEST 9:44 PM CEST
Moon 6:02 PM CEST (9/16) 3:24 AM CEST (9/16)
Length of Visible Light 13h 41m
Length of Day
12h 35m
Waxing Gibbous, 88% of the Moon is Illuminated
Sep 16
Waxing Gibbous
Sep 19
Full
Sep 27
Last Quarter
Oct 5
New
Oct 12
First Quarter

Hourly Weather History & Observations

Time (CEST) Temp. Windchill Dew Point Humidity Pressure Visibility Wind Dir Wind Speed Gust Speed Precip Events Conditions
12:25 AM 53.6 °F - 51.8 °F 94% 29.62 in 5.6 mi SSW 15.0 mph - N/A Rain Light Rain
12:55 AM 53.6 °F - 51.8 °F 94% 29.62 in 5.0 mi SSW 15.0 mph - N/A Rain Light Rain
1:22 AM 53.6 °F - 51.8 °F 94% 29.62 in 5.0 mi SW 16.1 mph - N/A Rain Light Rain
1:25 AM 53.6 °F - 51.8 °F 94% 29.62 in 5.0 mi SW 16.1 mph 29.9 mph N/A Rain Light Rain
1:55 AM 53.6 °F - 53.6 °F 100% 29.59 in 4.3 mi SSW 16.1 mph - N/A Rain Light Rain
2:00 AM 54 °F - 53 °F 95% 29.61 in 4 mi SSW 15.7 mph - - Rain Light Rain
2:25 AM 53.6 °F - 53.6 °F 100% 29.59 in 4.3 mi SSW 17.3 mph - N/A Rain Light Rain
2:55 AM 53.6 °F - 53.6 °F 100% 29.56 in 2.5 mi SW 18.4 mph 31.1 mph N/A Rain Light Rain
3:25 AM 53.6 °F - 53.6 °F 100% 29.56 in 3.7 mi SW 20.7 mph 34.5 mph N/A Rain Light Rain
3:55 AM 55.4 °F - 53.6 °F 94% 29.56 in 3.7 mi SW 18.4 mph - N/A Rain Light Rain
4:25 AM 55.4 °F - 53.6 °F 94% 29.56 in 6.2 mi WSW 13.8 mph - N/A   Mostly Cloudy
4:55 AM 55.4 °F - 53.6 °F 94% 29.56 in 6.2 mi WSW 11.5 mph - N/A   Mostly Cloudy
5:00 AM 55 °F - 54 °F 95% 29.57 in 12 mi WSW 11.2 mph - -   Partly Cloudy
5:25 AM 55.4 °F - 53.6 °F 94% 29.56 in 6.2 mi WSW 12.7 mph - N/A   Mostly Cloudy
5:52 AM 53.6 °F - 53.6 °F 100% 29.56 in 6.2 mi West 8.1 mph - N/A   Mostly Cloudy
5:55 AM 53.6 °F - 53.6 °F 100% 29.56 in 6.2 mi West 8.1 mph - N/A   Mostly Cloudy
6:22 AM 53.6 °F - 51.8 °F 94% 29.56 in 6.2 mi WSW 5.8 mph - N/A   Mostly Cloudy
6:23 AM 53.6 °F - 51.8 °F 94% 29.56 in 6.2 mi WSW 5.8 mph - N/A   Mostly Cloudy
6:25 AM 53.6 °F - 51.8 °F 94% 29.56 in 6.2 mi SW 5.8 mph - N/A   Mostly Cloudy
6:55 AM 51.8 °F - 51.8 °F 100% 29.56 in 6.2 mi SW 4.6 mph - N/A   Scattered Clouds
7:24 AM 51.8 °F - 51.8 °F 100% 29.56 in 6.2 mi WSW 5.8 mph - N/A   Mostly Cloudy
7:25 AM 51.8 °F - 51.8 °F 100% 29.56 in 6.2 mi WSW 5.8 mph - N/A   Mostly Cloudy
8:04 AM 51.8 °F - 50.0 °F 94% 29.56 in 6.2 mi West 6.9 mph - N/A Rain Light Rain
8:25 AM 51.8 °F - 51.8 °F 100% 29.59 in 6.2 mi WSW 4.6 mph - N/A   Mostly Cloudy
8:41 AM 51.8 °F - 51.8 °F 100% 29.59 in 6.2 mi WSW 5.8 mph - N/A   Mostly Cloudy
8:55 AM 51.8 °F - 50.0 °F 94% 29.59 in 6.2 mi WSW 6.9 mph - N/A   Mostly Cloudy
9:04 AM 51.8 °F - 50.0 °F 94% 29.59 in 6.2 mi WSW 6.9 mph - N/A   Mostly Cloudy
9:05 AM 51.8 °F - 50.0 °F 94% 29.59 in 6.2 mi WSW 6.9 mph - N/A   Mostly Cloudy
9:09 AM 51.8 °F - 51.8 °F 100% 29.59 in 6.2 mi WSW 6.9 mph - N/A   Mostly Cloudy
9:25 AM 55.4 °F - 51.8 °F 88% 29.59 in 6.2 mi WSW 8.1 mph - N/A   Scattered Clouds
9:55 AM 55.4 °F - 50.0 °F 82% 29.59 in 6.2 mi WSW 13.8 mph - N/A   Scattered Clouds
10:25 AM 55.4 °F - 48.2 °F 77% 29.59 in 6.2 mi West 13.8 mph - N/A   Scattered Clouds
10:55 AM 57.2 °F - 48.2 °F 72% 29.59 in 6.2 mi WSW 13.8 mph - N/A   Partly Cloudy
11:00 AM 57 °F - 47 °F 61% 29.60 in 14 mi WSW 13.4 mph - -   Partly Cloudy
11:25 AM 55.4 °F - 44.6 °F 67% 29.59 in 6.2 mi West 16.1 mph - N/A   Scattered Clouds
11:55 AM 57.2 °F - 44.6 °F 63% 29.59 in 6.2 mi West 15.0 mph - N/A   Scattered Clouds
12:25 PM 59.0 °F - 44.6 °F 59% 29.59 in 6.2 mi WSW 17.3 mph - N/A   Scattered Clouds
12:55 PM 57.2 °F - 42.8 °F 59% 29.59 in 6.2 mi WSW 17.3 mph - N/A   Scattered Clouds
1:25 PM 57.2 °F - 42.8 °F 59% 29.59 in 6.2 mi West 13.8 mph - N/A   Scattered Clouds
1:55 PM 57.2 °F - 41.0 °F 55% 29.59 in 6.2 mi WSW 16.1 mph 29.9 mph N/A   Scattered Clouds
2:25 PM 60.8 °F - 41.0 °F 48% 29.56 in 6.2 mi WSW 21.9 mph - N/A   Scattered Clouds
2:55 PM 59.0 °F - 39.2 °F 48% 29.56 in 6.2 mi WSW 18.4 mph - N/A   Scattered Clouds
3:25 PM 59.0 °F - 39.2 °F 48% 29.56 in 6.2 mi West 16.1 mph - N/A   Scattered Clouds
3:55 PM 59.0 °F - 39.2 °F 48% 29.56 in 6.2 mi West 11.5 mph - N/A   Scattered Clouds
4:25 PM 59.0 °F - 39.2 °F 48% 29.56 in 6.2 mi West 12.7 mph - N/A   Scattered Clouds
4:55 PM 59.0 °F - 37.4 °F 45% 29.56 in 6.2 mi West 12.7 mph - N/A   Scattered Clouds
5:00 PM 59 °F - 37 °F 33% 29.57 in 22 mi West 11.2 mph - -   Partly Cloudy
5:25 PM 57.2 °F - 39.2 °F 51% 29.56 in 6.2 mi West 8.1 mph - N/A   Scattered Clouds
5:55 PM 57.2 °F - 37.4 °F 48% 29.56 in 6.2 mi West 9.2 mph - N/A   Scattered Clouds
6:25 PM 57.2 °F - 39.2 °F 51% 29.56 in 6.2 mi West 6.9 mph - N/A   Scattered Clouds
6:55 PM 55.4 °F - 39.2 °F 54% 29.56 in 6.2 mi West 4.6 mph - N/A   Partly Cloudy
7:25 PM 53.6 °F - 41.0 °F 62% 29.56 in 6.2 mi West 3.5 mph - N/A   Partly Cloudy
7:55 PM 51.8 °F - 41.0 °F 67% 29.56 in 6.2 mi NW 8.1 mph - N/A   Scattered Clouds
8:00 PM 51 °F - 41 °F 60% 29.58 in 25 mi NW 6.7 mph - -   Mostly Cloudy
8:25 PM 51.8 °F - 42.8 °F 71% 29.59 in 6.2 mi West 4.6 mph - N/A   Scattered Clouds
8:55 PM 50.0 °F - 41.0 °F 71% 29.59 in 6.2 mi WSW 12.7 mph - N/A   Mostly Cloudy
9:25 PM 48.2 °F - 42.8 °F 82% 29.59 in 6.2 mi SW 5.8 mph - N/A   Scattered Clouds
9:55 PM 48.2 °F - 42.8 °F 82% 29.59 in 6.2 mi SW 10.4 mph - N/A   Scattered Clouds
10:25 PM 46.4 °F 43.5 °F 42.8 °F 87% 29.59 in 6.2 mi SW 5.8 mph - N/A   Scattered Clouds
10:55 PM 46.4 °F 41.9 °F 42.8 °F 87% 29.59 in 6.2 mi SSW 9.2 mph - N/A   Scattered Clouds
11:00 PM 46 °F - 43 °F 84% 29.61 in 19 mi SSW 8.9 mph - -   Partly Cloudy
11:25 PM 46.4 °F 42.4 °F 42.8 °F 87% 29.59 in 6.2 mi SW 8.1 mph - N/A   Partly Cloudy
11:55 PM 46.4 °F 42.4 °F 42.8 °F 87% 29.62 in 6.2 mi SW 8.1 mph - N/A   Partly Cloudy